GW0881 Weather Reports


Display with metric or nautical units.
time (UTC)temp
F
wind
direction
speed
MPH
gust
MPH
rain 1hr
in
rain 24hr
in
rain mn
in
humidity
%
barometer
mb
20260509192817 57 350 10.0 11.0 0.00 0.00 0.00 33 1008.2
20260509192314 57 2 7.0 13.0 0.00 0.00 0.00 34 1008.2
20260509191809 57 323 9.0 13.0 0.00 0.00 0.00 33 1008.0
20260509191305 57 307 9.0 10.0 0.00 0.00 0.00 34 1007.9
20260509190801 58 330 7.0 10.0 0.00 0.00 0.00 35 1008.0
20260509190258 57 9 5.0 6.0 0.00 0.00 0.00 38 1008.1
20260509185755 57 35 14.0 17.0 0.00 0.00 0.00 35 1008.0
20260509185251 57 2 10.0 14.0 0.00 0.00 0.00 35 1007.9
20260509184749 56 49 6.0 8.0 0.00 0.00 0.00 39 1007.9
20260509184247 56 40 6.0 7.0 0.00 0.00 0.00 38 1008.0
20260509183743 57 13 10.0 14.0 0.00 0.00 0.00 36 1007.9
20260509183238 56 320 6.0 8.0 0.00 0.00 0.00 37 1008.0
20260509182734 56 59 14.0 31.0 0.00 0.00 0.00 40 1007.8
20260509182231 56 63 7.0 11.0 0.00 0.00 0.00 38 1007.7
20260509181729 56 6 12.0 15.0 0.00 0.00 0.00 36 1007.9
20260509181226 55 13 8.0 9.0 0.00 0.00 0.00 38 1007.8
20260509180723 56 323 9.0 11.0 0.00 0.00 0.00 37 1007.7
20260509180219 56 318 7.0 8.0 0.00 0.00 0.00 39 1007.7
20260509175716 56 313 6.0 7.0 0.00 0.00 0.00 39 1007.7
20260509175212 55 297 8.0 9.0 0.00 0.00 0.00 41 1007.7
20260509174708 55 319 5.0 7.0 0.00 0.00 0.00 41 1007.7
20260509174203 55 299 5.0 6.0 0.00 0.00 0.00 40 1007.7
20260509173700 55 354 5.0 7.0 0.00 0.00 0.00 42 1008.0
20260509173155 55 44 7.0 8.0 0.00 0.00 0.00 43 1007.7
20260509172652 55 324 6.0 8.0 0.00 0.00 0.00 42 1007.8
20260509172148 55 344 6.0 8.0 0.00 0.00 0.00 42 1007.6
20260509171643 55 9 5.0 7.0 0.00 0.00 0.00 43 1007.5
20260509171140 54 344 7.0 9.0 0.00 0.00 0.00 45 1007.6
20260509170637 54 50 5.0 8.0 0.00 0.00 0.00 43 1007.5
20260509170133 54 6 16.0 21.0 0.00 0.00 0.00 41 1007.4
20260509165631 54 328 6.0 8.0 0.00 0.00 0.00 43 1007.4
20260509165127 54 25 7.0 9.0 0.00 0.00 0.00 44 1007.3
20260509164623 53 30 12.0 16.0 0.00 0.00 0.00 43 1007.2
20260509164119 54 4 13.0 18.0 0.00 0.00 0.00 44 1007.3
20260509163617 54 271 7.0 10.0 0.00 0.00 0.00 45 1007.1
20260509163112 53 301 7.0 9.0 0.00 0.00 0.00 47 1007.1
20260509162610 53 23 11.0 20.0 0.00 0.00 0.00 48 1007.1
20260509162106 53 331 7.0 8.0 0.00 0.00 0.00 47 1007.0
20260509161603 53 2 12.0 15.0 0.00 0.00 0.00 46 1006.9
20260509161103 53 313 12.0 15.0 0.00 0.00 0.00 47 1006.6
20260509160559 53 304 7.0 8.0 0.00 0.00 0.00 47 1006.8
20260509160054 53 5 10.0 13.0 0.00 0.00 0.00 48 1006.5
20260509155551 54 16 7.0 9.0 0.00 0.00 0.00 47 1006.4
20260509155047 54 29 12.0 14.0 0.00 0.00 0.00 45 1006.6
20260509154543 53 2 9.0 11.0 0.00 0.00 0.00 46 1006.5
20260509154041 53 5 7.0 9.0 0.00 0.00 0.00 48 1006.5
20260509153538 53 340 9.0 14.0 0.00 0.00 0.00 47 1006.4
20260509153034 53 309 7.0 9.0 0.00 0.00 0.00 47 1006.3
20260509152530 53 22 7.0 9.0 0.00 0.00 0.00 47 1006.2
20260509152027 53 5 8.0 10.0 0.00 0.00 0.00 50 1006.3
20260509151523 53 303 11.0 17.0 0.00 0.00 0.00 49 1006.0
20260509151021 53 323 8.0 10.0 0.00 0.00 0.00 54 1005.7
20260509150519 53 2 11.0 15.0 0.00 0.00 0.00 51 1005.7
20260509150017 53 24 5.0 7.0 0.00 0.00 0.00 54 1005.7
20260509145512 52 314 5.0 7.0 0.00 0.00 0.00 56 1005.7
20260509145008 52 305 8.0 10.0 0.00 0.00 0.00 58 1005.3
20260509144505 52 355 9.0 14.0 0.00 0.00 0.00 58 1005.5
20260509144002 52 346 9.0 11.0 0.00 0.00 0.00 59 1005.5
20260509143459 51 33 5.0 7.0 0.00 0.00 0.00 58 1005.4
20260509142955 52 53 5.0 6.0 0.00 0.00 0.00 61 1005.6
20260509142452 51 26 8.0 9.0 0.00 0.00 0.00 62 1005.4
20260509141948 51 278 5.0 7.0 0.00 0.00 0.00 63 1005.4
20260509141444 51 297 5.0 7.0 0.00 0.00 0.00 65 1005.2
20260509140941 51 43 9.0 13.0 0.00 0.00 0.00 65 1005.4
20260509140437 50 2 6.0 8.0 0.00 0.00 0.00 66 1005.2
20260509135936 50 11 9.0 10.0 0.00 0.00 0.00 68 1005.3
20260509135433 50 358 7.0 9.0 0.00 0.00 0.00 68 1005.2
20260509134930 50 356 6.0 9.0 0.00 0.00 0.00 70 1005.2
20260509134428 50 327 5.0 6.0 0.00 0.00 0.00 72 1005.1
20260509133925 49 37 7.0 8.0 0.00 0.00 0.00 73 1004.9
20260509133421 49 13 8.0 10.0 0.00 0.00 0.00 74 1004.9
20260509132920 49 47 5.0 6.0 0.00 0.00 0.00 75 1004.9
20260509132418 49 20 5.0 7.0 0.00 0.00 0.00 78 1004.5
20260509131914 49 348 6.0 7.0 0.00 0.00 0.00 80 1004.7
20260509131412 49 308 3.0 3.0 0.00 0.00 0.00 82 1004.5
20260509130908 48 19 6.0 8.0 0.00 0.00 0.00 82 1004.6
20260509130403 48 347 3.0 3.0 0.00 0.00 0.00 83 1004.5
20260509125900 48 1 3.0 5.0 0.00 0.00 0.00 83 1004.4
20260509125357 48 5 9.0 11.0 0.00 0.00 0.00 84 1004.3
20260509124853 48 30 5.0 6.0 0.00 0.00 0.00 84 1004.2
20260509124350 48 0 8.0 10.0 0.00 0.00 0.00 84 1004.1
20260509123848 48 11 7.0 8.0 0.00 0.00 0.00 85 1004.0
20260509123345 48 354 9.0 11.0 0.00 0.00 0.00 85 1004.0
20260509122841 48 8 7.0 8.0 0.00 0.00 0.00 85 1003.8
20260509122338 48 325 3.0 3.0 0.00 0.00 0.00 85 1003.9
20260509121835 48 324 7.0 8.0 0.00 0.00 0.00 85 1003.7
20260509121332 48 36 7.0 9.0 0.00 0.00 0.00 85 1003.6
20260509120830 49 315 5.0 6.0 0.00 0.00 0.00 84 1003.6
20260509120327 49 312 4.0 5.0 0.00 0.00 0.00 85 1003.4
20260509115826 49 346 6.0 7.0 0.00 0.00 0.00 84 1003.4
20260509115322 49 344 5.0 6.0 0.00 0.00 0.00 84 1003.3
20260509114820 49 321 5.0 5.0 0.00 0.00 0.00 85 1003.0
20260509114319 49 344 6.0 7.0 0.00 0.00 0.00 86 1003.2
20260509113818 49 358 6.0 7.0 0.00 0.00 0.00 87 1002.8
20260509113314 49 300 2.0 2.0 0.00 0.00 0.00 89 1002.9
20260509112811 49 335 3.0 3.0 0.00 0.00 0.00 89 1002.7
20260509112308 49 271 1.0 2.0 0.00 0.00 0.00 89 1002.9
20260509111805 49 256 2.0 2.0 0.00 0.00 0.00 89 1002.8
20260509111302 49 259 2.0 2.0 0.00 0.00 0.00 89 1002.4
20260509110759 49 277 2.0 2.0 0.00 0.00 0.00 88 1002.1
20260509110255 49 306 2.0 2.0 0.00 0.00 0.00 87 1002.1
20260509105754 49 329 2.0 3.0 0.00 0.00 0.00 87 1002.1
20260509105251 49 311 2.0 2.0 0.00 0.00 0.00 87 1002.0
20260509104748 49 298 3.0 3.0 0.00 0.00 0.00 87 1001.8
20260509104245 49 272 2.0 2.0 0.00 0.00 0.00 86 1001.6
20260509103743 49 245 1.0 1.0 0.00 0.00 0.00 86 1001.6
20260509103240 49 249 1.0 1.0 0.00 0.00 0.00 86 1001.6
20260509102738 50 248 1.0 1.0 0.00 0.00 0.00 85 1001.5
20260509102235 50 260 1.0 1.0 0.00 0.00 0.00 84 1001.5
20260509101731 50 246 1.0 1.0 0.00 0.00 0.00 84 1001.5
20260509101227 50 230 0.0 1.0 0.00 0.00 0.00 84 1001.4
20260509100725 50 258 1.0 1.0 0.00 0.00 0.00 84 1001.5
20260509100222 49 233 1.0 1.0 0.00 0.00 0.00 83 1001.4
20260509095719 50 250 1.0 1.0 0.00 0.00 0.00 82 1001.3
20260509095216 50 338 2.0 2.0 0.00 0.00 0.00 82 1001.5
20260509094713 50 217 1.0 1.0 0.00 0.00 0.00 81 1001.4
20260509094210 50 242 0.0 1.0 0.00 0.00 0.00 80 1001.3
20260509093708 50 265 2.0 2.0 0.00 0.00 0.00 79 1001.4
20260509093205 51 221 0.0 0.0 0.00 0.00 0.00 77 1001.5
20260509092703 51 13 3.0 3.0 0.00 0.00 0.00 75 1001.6
20260509092201 51 261 2.0 2.0 0.00 0.00 0.00 73 1002.0
20260509091659 51 254 2.0 2.0 0.00 0.00 0.00 72 1001.9
20260509091154 51 265 1.0 1.0 0.00 0.00 0.00 72 1001.8
20260509090652 51 277 1.0 2.0 0.00 0.00 0.00 71 1001.7
20260509090149 51 334 3.0 3.0 0.00 0.00 0.00 71 1001.7
20260509085647 52 322 1.0 2.0 0.00 0.00 0.00 70 1001.6
20260509085143 52 251 1.0 1.0 0.00 0.00 0.00 69 1001.7
20260509084640 52 311 3.0 3.0 0.00 0.00 0.00 68 1001.5
20260509084137 52 31 5.0 7.0 0.00 0.00 0.00 68 1001.5
20260509083635 52 41 2.0 2.0 0.00 0.00 0.00 66 1001.6
20260509083131 52 352 3.0 5.0 0.00 0.00 0.00 65 1001.7
20260509082628 52 39 4.0 5.0 0.00 0.00 0.00 64 1001.3
20260509082125 53 341 8.0 10.0 0.00 0.00 0.00 62 1001.5
20260509081622 53 5 4.0 5.0 0.00 0.00 0.00 59 1001.6
20260509081119 53 12 4.0 5.0 0.00 0.00 0.00 56 1001.5
20260509080617 53 20 2.0 2.0 0.00 0.00 0.00 55 1001.4
20260509080115 52 40 4.0 5.0 0.00 0.00 0.00 54 1001.3
20260509075613 52 330 3.0 3.0 0.00 0.00 0.00 54 1001.3
20260509075110 52 25 4.0 5.0 0.00 0.00 0.00 53 1001.4
20260509074607 51 2 5.0 7.0 0.00 0.00 0.00 53 1001.3
20260509074103 51 11 4.0 5.0 0.00 0.00 0.00 52 1001.4
20260509073600 51 281 2.0 2.0 0.00 0.00 0.00 53 1001.2
20260509073056 50 24 5.0 6.0 0.00 0.00 0.00 53 1001.2
20260509072553 49 29 3.0 5.0 0.00 0.00 0.00 61 1000.7
20260509072050 51 214 0.0 0.0 0.00 0.00 0.00 62 1000.3
20260509071547 51 212 0.0 0.0 0.00 0.00 0.00 50 1000.4
20260509071044 52 218 0.0 0.0 0.00 0.00 0.00 49 1000.5
20260509070541 52 216 0.0 0.0 0.00 0.00 0.00 48 1000.7
20260509070037 52 214 0.0 0.0 0.00 0.00 0.00 48 1000.6
20260509065533 51 239 0.0 1.0 0.00 0.00 0.00 48 1000.6
20260509065029 51 216 0.0 0.0 0.00 0.00 0.00 49 1000.7
20260509064527 50 224 0.0 0.0 0.00 0.00 0.00 51 1000.7
20260509064025 50 211 0.0 0.0 0.00 0.00 0.00 53 1000.7
20260509063520 48 215 0.0 0.0 0.00 0.00 0.00 61 1000.8
20260509063018 48 214 0.0 0.0 0.00 0.00 0.00 61 1000.8
20260509062515 49 222 0.0 0.0 0.00 0.00 0.00 59 1000.6
20260509062012 49 207 0.0 0.0 0.00 0.00 0.00 53 1000.5
20260509061509 48 206 0.0 0.0 0.00 0.00 0.00 54 1000.7
20260509061007 47 213 0.0 0.0 0.00 0.00 0.00 57 1000.7
20260509060504 47 217 0.0 0.0 0.00 0.00 0.00 56 1000.7
20260509055959 48 224 0.0 0.0 0.00 0.00 0.00 60 1000.4
20260509055454 48 222 0.0 0.0 0.00 0.00 0.00 58 1000.3
20260509054951 48 214 0.0 0.0 0.00 0.00 0.00 59 1000.4
20260509054448 48 210 0.0 0.0 0.00 0.00 0.00 58 1000.6
20260509053946 49 202 0.0 0.0 0.00 0.00 0.00 55 1000.7
20260509053444 49 209 0.0 0.0 0.00 0.00 0.00 58 1000.9
20260509052941 49 202 1.0 1.0 0.00 0.00 0.00 53 1000.7
20260509052438 49 195 0.0 0.0 0.00 0.00 0.00 51 1001.1
20260509051936 48 211 0.0 0.0 0.00 0.00 0.00 51 1001.1
20260509051434 48 216 0.0 0.0 0.00 0.00 0.00 56 1001.2
20260509050931 48 212 0.0 0.0 0.00 0.00 0.00 56 1001.4
20260509050427 48 213 0.0 1.0 0.00 0.00 0.00 54 1001.5
20260509045924 49 216 0.0 0.0 0.00 0.00 0.00 57 1001.2
20260509045421 50 200 1.0 2.0 0.00 0.00 0.00 50 1001.2
20260509044918 50 203 1.0 1.0 0.00 0.00 0.00 48 1001.3
20260509044416 50 204 0.0 0.0 0.00 0.00 0.00 51 1001.6
20260509043913 50 203 0.0 0.0 0.00 0.00 0.00 52 1001.5
20260509043408 51 202 0.0 0.0 0.00 0.00 0.00 51 1001.6
20260509042904 52 202 0.0 0.0 0.00 0.00 0.00 46 1001.6
20260509042401 52 217 1.0 1.0 0.00 0.00 0.00 46 1001.5
20260509041857 54 209 0.0 0.0 0.00 0.00 0.00 47 1001.5
20260509041354 56 213 0.0 0.0 0.00 0.00 0.00 40 1001.6
20260509040853 56 225 0.0 0.0 0.00 0.00 0.00 37 1001.6
20260509040350 56 217 1.0 1.0 0.00 0.00 0.00 36 1001.7
20260509035847 56 228 1.0 1.0 0.00 0.00 0.00 36 1001.6
20260509035344 57 269 1.0 1.0 0.00 0.00 0.00 36 1001.7
20260509034840 57 255 1.0 1.0 0.00 0.00 0.00 35 1001.8
20260509034338 57 254 1.0 1.0 0.00 0.00 0.00 35 1002.0
20260509033835 57 272 1.0 2.0 0.00 0.00 0.00 34 1001.7
20260509033332 58 265 2.0 2.0 0.00 0.00 0.00 33 1001.8
20260509032829 58 272 3.0 3.0 0.00 0.00 0.00 33 1001.6
20260509032326 58 297 2.0 2.0 0.00 0.00 0.00 33 1001.9
20260509031824 59 306 3.0 3.0 0.00 0.00 0.00 33 1001.8
20260509031321 59 319 3.0 3.0 0.00 0.00 0.00 33 1001.6
20260509030819 59 266 2.0 2.0 0.00 0.00 0.00 33 1001.6
20260509030316 59 314 3.0 3.0 0.00 0.00 0.00 33 1001.6
20260509025813 59 326 2.0 2.0 0.00 0.00 0.00 33 1001.7
20260509025308 59 317 4.0 6.0 0.00 0.00 0.00 33 1001.5
20260509024804 59 227 1.0 1.0 0.00 0.00 0.00 34 1001.3
20260509024300 60 305 3.0 3.0 0.00 0.00 0.00 33 1001.5
20260509023757 60 257 3.0 3.0 0.00 0.00 0.00 33 1001.4
20260509023255 60 247 4.0 5.0 0.00 0.00 0.00 32 1001.4
20260509022750 61 337 3.0 5.0 0.00 0.00 0.00 32 1001.4
20260509022249 61 316 4.0 5.0 0.00 0.00 0.00 33 1001.3
20260509021745 62 333 5.0 7.0 0.00 0.00 0.00 33 1001.2
20260509021242 62 315 5.0 6.0 0.00 0.00 0.00 33 1001.1
20260509020740 62 307 8.0 9.0 0.00 0.00 0.00 34 1000.8
20260509020237 62 1 9.0 11.0 0.00 0.00 0.00 34 1000.8
20260509015735 62 303 6.0 7.0 0.00 0.00 0.00 33 1000.7
20260509015233 63 25 8.0 9.0 0.00 0.00 0.00 33 1000.6
20260509014729 63 342 4.0 5.0 0.00 0.00 0.00 33 1000.6
20260509014227 63 301 4.0 5.0 0.00 0.00 0.00 33 1000.2
20260509013723 64 300 3.0 5.0 0.00 0.00 0.00 33 1000.3
20260509013219 64 292 4.0 6.0 0.00 0.00 0.00 33 1000.2
20260509012715 64 283 3.0 3.0 0.00 0.00 0.00 32 1000.1
20260509012212 65 303 4.0 5.0 0.00 0.00 0.00 31 1000.1
20260509011710 65 314 3.0 5.0 0.00 0.00 0.00 30 1000.0
20260509011207 66 282 6.0 7.0 0.00 0.00 0.00 29 999.9
20260509010705 66 278 6.0 6.0 0.00 0.00 0.00 29 1000.0
20260509010201 66 307 6.0 8.0 0.00 0.00 0.00 28 999.8
20260509005659 66 338 4.0 5.0 0.00 0.00 0.00 28 999.6
20260509005155 67 332 3.0 3.0 0.00 0.00 0.00 28 999.7
20260509004651 67 313 5.0 6.0 0.00 0.00 0.00 26 999.7
20260509004148 67 332 6.0 7.0 0.00 0.00 0.00 26 999.7
20260509003647 67 306 5.0 7.0 0.00 0.00 0.00 26 999.6
20260509003143 68 294 5.0 5.0 0.00 0.00 0.00 26 999.8
20260509002641 68 275 5.0 6.0 0.00 0.00 0.00 26 999.7
20260509002138 68 335 10.0 13.0 0.00 0.00 0.00 25 999.5
20260509001636 68 324 6.0 7.0 0.00 0.00 0.00 25 999.6
20260509001131 68 346 5.0 6.0 0.00 0.00 0.00 25 999.5
20260509000630 69 275 5.0 6.0 0.00 0.00 0.00 25 999.6
20260509000126 69 4 6.0 7.0 0.00 0.00 0.00 25 999.5
20260508235623 69 277 4.0 5.0 0.00 0.00 0.00 25 999.5
20260508235120 69 310 5.0 8.0 0.00 0.00 0.00 25 999.6
20260508234617 69 282 6.0 8.0 0.00 0.00 0.00 25 999.6
20260508234113 69 315 7.0 8.0 0.00 0.00 0.00 25 999.5
20260508233613 69 281 6.0 7.0 0.00 0.00 0.00 26 999.6
20260508233110 69 308 7.0 8.0 0.00 0.00 0.00 26 999.7
20260508232607 69 269 5.0 6.0 0.00 0.00 0.00 26 999.5
20260508232103 69 278 4.0 7.0 0.00 0.00 0.00 26 999.6
20260508231602 70 280 5.0 8.0 0.00 0.00 0.00 26 999.8
20260508231058 70 277 3.0 6.0 0.00 0.00 0.00 27 999.7
20260508230554 70 256 5.0 7.0 0.00 0.00 0.00 26 999.6
20260508230051 69 299 4.0 5.0 0.00 0.00 0.00 27 999.6
20260508225549 70 309 5.0 6.0 0.00 0.00 0.00 27 999.6
20260508225045 69 274 3.0 3.0 0.00 0.00 0.00 28 999.6
20260508224543 69 217 3.0 3.0 0.00 0.00 0.00 27 999.7
20260508224040 69 272 5.0 6.0 0.00 0.00 0.00 27 999.6
20260508223538 69 317 6.0 8.0 0.00 0.00 0.00 26 999.6
20260508223035 69 301 5.0 6.0 0.00 0.00 0.00 27 999.5
20260508222533 70 306 5.0 7.0 0.00 0.00 0.00 27 999.8
20260508222029 69 311 3.0 3.0 0.00 0.00 0.00 26 999.7
20260508221526 70 219 3.0 3.0 0.00 0.00 0.00 26 999.6
20260508221021 70 292 5.0 6.0 0.00 0.00 0.00 26 999.7
20260508220518 70 292 2.0 2.0 0.00 0.00 0.00 27 999.6
20260508220015 69 304 6.0 8.0 0.00 0.00 0.00 26 1000.0
20260508215512 69 332 3.0 3.0 0.00 0.00 0.00 26 1000.1
20260508215008 69 317 6.0 8.0 0.00 0.00 0.00 26 1000.0
20260508214506 69 320 3.0 3.0 0.00 0.00 0.00 25 1000.0
20260508214002 69 325 7.0 9.0 0.00 0.00 0.00 25 1000.1
20260508213500 70 299 7.0 7.0 0.00 0.00 0.00 25 1000.1
20260508212954 69 247 3.0 3.0 0.00 0.00 0.00 26 1000.2
20260508212452 68 294 4.0 5.0 0.00 0.00 0.00 26 1000.3
20260508211948 69 353 6.0 8.0 0.00 0.00 0.00 26 1000.3
20260508211443 70 283 3.0 3.0 0.00 0.00 0.00 27 1000.4
20260508210940 70 260 5.0 7.0 0.00 0.00 0.00 25 1000.4
20260508210437 69 282 5.0 8.0 0.00 0.00 0.00 27 1000.6
20260508205933 69 279 4.0 5.0 0.00 0.00 0.00 26 1000.8
20260508205431 69 296 6.0 7.0 0.00 0.00 0.00 25 1000.8
20260508204927 70 274 8.0 10.0 0.00 0.00 0.00 25 1000.9
20260508204424 69 317 5.0 6.0 0.00 0.00 0.00 25 1000.9
20260508203919 69 289 8.0 10.0 0.00 0.00 0.00 25 1001.0
20260508203416 69 286 5.0 6.0 0.00 0.00 0.00 25 1001.3
20260508202912 69 301 7.0 8.0 0.00 0.00 0.00 26 1001.1
20260508202410 69 234 5.0 6.0 0.00 0.00 0.00 27 1001.2
20260508201906 68 286 4.0 5.0 0.00 0.00 0.00 26 1001.4
20260508201403 69 276 4.0 5.0 0.00 0.00 0.00 26 1001.6
20260508200859 68 279 3.0 5.0 0.00 0.00 0.00 25 1001.4
20260508200356 68 337 7.0 8.0 0.00 0.00 0.00 26 1001.6
20260508195852 68 273 6.0 9.0 0.00 0.00 0.00 26 1001.7
20260508195349 68 274 7.0 8.0 0.00 0.00 0.00 25 1001.8
20260508194845 68 299 3.0 5.0 0.00 0.00 0.00 28 1001.9
20260508194342 68 348 6.0 7.0 0.00 0.00 0.00 26 1001.9
20260508193839 68 254 4.0 5.0 0.00 0.00 0.00 25 1002.1
20260508193336 67 261 4.0 5.0 0.00 0.00 0.00 27 1002.0